Location: Great Falls
(47.5000°N, 111.3000°W)
Time: 22:45:28
(UTC-07:00)

ISS - Visible Passes

Search period start: 10 December 2017 00:00
Search period end: 20 December 2017 00:00
Orbit: 402 x 407 km, 51.6° (Epoch: 11 December)

Date Brightness Start Highest point End Pass type
(mag) Time Alt. Az. Time Alt. Az. Time Alt. Az.
10 Dec -3.1 17:09:54 10° WNW 17:13:02 39° N 17:16:09 10° ENE visible
10 Dec -3.2 18:46:27 10° WNW 18:49:04 52° WNW 18:49:04 52° WNW visible
11 Dec -3.7 17:54:13 10° WNW 17:57:29 60° NNE 17:59:10 25° E visible
11 Dec -0.8 19:30:53 10° W 19:31:51 17° W 19:31:51 17° W visible
12 Dec -3.4 17:01:57 10° WNW 17:05:09 46° NNE 17:08:21 10° E visible
12 Dec -3.2 18:38:29 10° WNW 18:41:42 52° SSW 18:42:06 48° S visible
13 Dec -3.8 17:46:11 10° WNW 17:49:29 84° SSW 17:52:32 12° ESE visible
13 Dec -0.9 19:23:27 10° W 19:25:14 16° SW 19:25:14 16° SW visible
14 Dec -1.7 18:30:39 10° W 18:33:28 26° SW 18:35:56 12° SSE visible
15 Dec -2.6 17:38:09 10° WNW 17:41:18 43° SSW 17:44:26 10° SE visible
16 Dec -0.6 18:23:24 10° WSW 18:25:03 13° SW 18:26:41 10° SSW visible
17 Dec -1.0 17:30:20 10° W 17:32:57 22° SW 17:35:34 10° SSE visible
19 Dec 0.0 17:23:31 10° WSW 17:24:26 11° SW 17:25:20 10° SSW visible
